Showing default

CHINASAT 1D, 49505

Orbit data source: Space-Track

CHINASAT 1D, 49505 is a payload satellite owned by PLA SSF (CN) in GEO that was launched on Fri, 26 Nov 2021 UTC via a CHANG ZHENG 3B launch vehicle from the Xichang Space Center, China (XSC). Payload-class satellites include a variety of spacecraft equipped with specific instruments for various scientific and technological missions. These include communications satellites like Starlink; space stations such as the ISS; scientific satellites like the Hubble; Earth observation satellites from companies like Planet Labs, Umbra, and HawkEye 360; GPS; miniature CubeSats for education and research; and military/defense satellites.

Not visible in the next 10 days
Identifier
49505, 2021-114A
Orbit
GEO
Country
Flag of CNCN / PRC
Related business
Manufacturer
CAST?
Mission
Operational Defense Communications
Bus & Motor
DFH-4?, DFH-4 LAE
Mass
~5,250 kg wet, ~2,500 kg dry
Launch date (UTC)
2021-11-26 (4 years ago)
Launch vehicle
CHANG ZHENG 3B
Launch site
Xichang Space Center, China (XSC)
Object type
Payload
Rocket body
Debris
Shape & HBR
Box + 2 Pan, 15.0 m
Radar Cross Section
34.063 m², Large (>1 m²)

Expand to show TLE details & history
Last TLE update: 14 hours ago

TLE from 14 hours ago
0 CHINASAT 1D
1 49505U 21114A   25260.32319668 -.00000357  00000-0  00000-0 0  9991
2 49505   0.0549 310.5929 0002475 323.1918 329.2394  1.00272133 14092
Epoch: 2025-09-17T07:45Z
TLE epoch observation values (Epoch: 2025-09-17T07:45:24.193Z)
Latitude
-0.01908°
Longitude
130.15978°
Altitude
35,777.071 km
Speed
3.075 km/s
True Right ascension
16h 12m 02s
True Declination
0° 01' 09"
Sunlit
Object was in daylight at epoch
Visualization orbit readout
Latitude
Unknown
Longitude
Unknown
Altitude
Unknown
Speed
Unknown
Apparent Right ascension
Unknown
Apparent Declination
Unknown
Sunlit
N/A
Visualization observer readout
Local Sidereal Time
14:11:32
Azimuth
Unknown
Elevation
Unknown
Doppler factor
Unknown
Orbital elements
Apogee altitude
35,798.004 km
Perigee altitude
35,777.132 km
Semi-major axis
42,165.705 km
Eccentricity
0.00025
Inclination
0.0549°
RAAN
310.5929°
Arg. of periapsis
323.1918°
True anomaly
329.22489°
Mean anomaly
329.2394°
Eccentric anomaly
329.23215°
Mean motion
0.25067 °/min
Orbital period
1,436.15 mins
BSTAR
0
Loading maneuver chart data...
Computing Atmospheric mass density...
Loading historical data...
Loading historical data...
Loading historical data...
Loading historical data...
Loading historical data...
Loading historical data...
Loading historical data...
Other satellites on launch #114 in the year 2021 (2021-11-26 UTC)

Documentation

Showing up to 5 results
|